Location: Taipo
(41.0000°S, 175.9500°E)
Time: 05:55:02
(UTC+00:00)

Meteor 2-20 - Pass Details

Date: 28 July 2024
Orbit: 939 x 957 km, 82.5° (Epoch: 15 July)

Event Time Altitude Azimuth Distance (km) Brightness Sun altitude
Rises 17:50:21 0° 197° (SSW) 3,669 7.3 -18.1°
Reaches altitude 10° 17:53:03 10° 205° (SSW) 2,718 6.5 -17.6°
Maximum altitude 17:58:37 35° 268° (W) 1,503 5.0 -16.6°
Drops below altitude 10° 18:04:07 10° 332° (NNW) 2,691 6.6 -15.6°
Sets 18:06:48 0° 340° (NNW) 3,628 7.4 -15.1°
